Location: Newark
(43.6583°N, 1.6617°E)
Time: 19:55:47
(UTC+00:00)

Altair - All Passes

Search period start: 18 August 2019 00:00
Search period end: 28 August 2019 00:00
Orbit: 1501 x 1683 km, 47.2° (Epoch: 16 August)

Date Brightness Start Highest point End Pass type
(mag) Time Alt. Az. Time Alt. Az. Time Alt. Az.
18 Aug - 02:52:34 10° SSW 03:01:19 38° SE 03:09:47 10° ENE visible
18 Aug - 04:55:40 10° WSW 05:05:23 86° SSE 05:14:47 10° ENE daylight
18 Aug - 07:01:04 10° W 07:10:35 71° N 07:19:49 10° E daylight
18 Aug - 09:06:18 10° WNW 09:15:42 85° SSW 09:24:53 10° ESE daylight
18 Aug - 11:11:30 10° WNW 11:19:35 36° SW 11:27:36 10° SSE daylight
19 Aug - 02:27:40 10° SSW 02:36:14 35° SE 02:44:32 10° ENE visible
19 Aug - 04:30:28 10° WSW 04:40:13 83° SSE 04:49:37 10° ENE visible
19 Aug - 06:35:48 10° W 06:45:21 72° N 06:54:37 10° E daylight
19 Aug - 08:41:07 10° WNW 08:50:32 88° SSW 08:59:44 10° ESE daylight
19 Aug - 10:46:15 10° WNW 10:54:32 39° SW 11:02:44 10° SSE daylight
20 Aug - 02:02:48 10° SSW 02:11:09 33° SE 02:19:16 10° ENE visible
20 Aug - 04:05:16 10° WSW 04:15:03 80° SSE 04:24:28 10° ENE visible
20 Aug - 06:10:32 10° W 06:20:08 72° N 06:29:25 10° E daylight
20 Aug - 08:15:54 10° WNW 08:25:22 89° NNE 08:34:35 10° ESE daylight
20 Aug - 10:21:00 10° WNW 10:29:28 42° SW 10:37:51 10° SSE daylight
21 Aug - 01:37:57 10° S 01:46:05 30° SE 01:53:58 10° ENE visible
21 Aug - 03:40:06 10° SW 03:49:53 76° SSE 03:59:18 10° ENE visible
21 Aug - 05:45:16 10° W 05:54:55 72° N 06:04:13 10° E daylight
21 Aug - 07:50:41 10° WNW 08:00:12 86° NNE 08:09:25 10° ESE daylight
21 Aug - 09:55:45 10° WNW 10:04:24 45° SW 10:12:55 10° SSE daylight
21 Aug - 12:05:06 10° WSW 12:07:08 11° WSW 12:09:11 10° SW daylight
22 Aug - 01:13:09 10° S 01:21:01 28° SE 01:28:39 10° ENE visible
22 Aug - 03:14:56 10° SW 03:24:43 73° SSE 03:34:08 10° ENE visible
22 Aug - 05:20:00 10° W 05:29:42 73° N 05:39:02 10° ENE daylight
22 Aug - 07:25:28 10° WNW 07:35:00 83° NNE 07:44:15 10° ESE daylight
22 Aug - 09:30:31 10° WNW 09:39:19 49° SW 09:47:58 10° SSE daylight
22 Aug - 11:38:39 10° W 11:42:09 13° WSW 11:45:40 10° SW daylight
23 Aug - 00:48:25 10° S 00:55:58 25° SE 01:03:18 10° E visible
23 Aug - 02:49:47 10° SW 02:59:33 69° SSE 03:08:58 10° ENE visible
23 Aug - 04:54:44 10° W 05:04:28 74° N 05:13:50 10° ENE daylight
23 Aug - 07:00:14 10° WNW 07:09:49 81° NNE 07:19:04 10° ESE daylight
23 Aug - 09:05:18 10° WNW 09:14:14 52° SW 09:23:00 10° SE daylight
23 Aug - 11:12:42 10° W 11:17:10 15° WSW 11:21:37 10° SSW daylight
24 Aug - 00:23:42 10° S 00:30:54 23° SE 00:37:54 10° E visible
24 Aug - 02:24:39 10° SW 02:34:25 65° SSE 02:43:48 10° ENE visible
24 Aug - 04:29:27 10° W 04:39:15 76° N 04:48:40 10° ENE visible
24 Aug - 06:35:01 10° WNW 06:44:38 79° NNE 06:53:53 10° ESE daylight
24 Aug - 08:40:04 10° WNW 08:49:08 56° SW 08:58:00 10° SE daylight
24 Aug - 10:46:58 10° W 10:52:10 17° SW 10:57:21 10° SSW daylight
24 Aug - 23:59:06 10° S 00:05:51 21° SE 00:12:27 10° E visible
25 Aug - 01:59:32 10° SW 02:09:16 62° SE 02:18:37 10° ENE visible
25 Aug - 04:04:11 10° W 04:14:01 77° NNW 04:23:29 10° ENE visible
25 Aug - 06:09:46 10° WNW 06:19:25 77° NNE 06:28:43 10° E daylight
25 Aug - 08:14:51 10° WNW 08:24:02 60° SW 08:32:59 10° SE daylight
25 Aug - 10:21:22 10° W 10:27:10 19° SW 10:32:57 10° SSW daylight
25 Aug - 23:34:32 10° SSE 23:40:48 19° SE 23:46:57 10° E visible
26 Aug - 01:34:27 10° SW 01:44:07 58° SE 01:53:27 10° ENE visible
26 Aug - 03:38:55 10° WSW 03:48:49 79° NNW 03:58:18 10° ENE visible
26 Aug - 05:44:31 10° WNW 05:54:12 76° N 06:03:31 10° E daylight
26 Aug - 07:49:38 10° WNW 07:58:55 64° SW 08:07:57 10° SE daylight
26 Aug - 09:55:51 10° W 10:02:11 21° SW 10:08:27 10° S daylight
26 Aug - 23:10:06 10° SSE 23:15:46 17° SE 23:21:20 10° E visible
27 Aug - 01:09:22 10° SW 01:18:59 55° SE 01:28:16 10° ENE visible
27 Aug - 03:13:40 10° WSW 03:23:35 81° NNW 03:33:07 10° ENE visible
27 Aug - 05:19:16 10° WNW 05:28:59 75° N 05:38:19 10° E daylight
27 Aug - 07:24:25 10° WNW 07:33:49 68° SSW 07:42:53 10° SE daylight
27 Aug - 09:30:23 10° W 09:37:10 23° SW 09:43:51 10° S daylight
27 Aug - 22:45:47 10° SSE 22:50:44 15° ESE 22:55:37 10° E visible
